Location: Aulagny
(45.1643°N, 4.3096°E)
Time: 18:53:14
(UTC+00:00)

Nadezhda 3 Rocket - Pass Details

Date: 21 October 2019
Orbit: 957 x 999 km, 82.9° (Epoch: 13 November)

Event Time Altitude Azimuth Distance (km) Brightness Sun altitude
Rises 17:13:40 0° 190° (S) 3,673 7.3 -5.2°
Reaches altitude 10° 17:16:10 10° 192° (SSW) 2,734 6.7 -5.7°
Maximum altitude 17:22:27 78° 279° (W) 1,019 4.3 -6.8°
Drops below altitude 10° 17:28:51 10° 6° (N) 2,775 6.3 -7.9°
Sets 17:31:24 0° 8° (N) 3,731 6.9 -8.3°
